FENGYUN 1C DEB, 32195

Orbit data source: Space-Track

FENGYUN 1C DEB, 32195 is space debris in SSO originally from a launch on Mon, 10 May 1999 UTC launched from the Taiyaun Space Center, China (TSC). Fengyun 1C debris stems from the Chinese weather satellite Fengyun-1C, which was intentionally destroyed by a Chinese anti-satellite missile in 2007. This event dramatically increased the amount of space debris, with thousands of trackable fragments posing hazards to satellites and human spaceflight. The Fengyun 1C debris cloud has become a focal point in discussions about space sustainability and the need for international regulations to prevent the creation of new debris.

Loading next visibility...
Identifier
32195, 1999-025CUR
Orbit
SSO
Country
Flag of CNCN / PRC
Related business
Manufacturer
Unknown
Mission
Spacecraft
Bus & Motor
Unknown
Mass
Unknown
Launch date (UTC)
1999-05-10 (26 years ago)
Launch vehicle
Unknown
Launch site
Taiyaun Space Center, China (TSC)
Object type
Payload
Rocket body
Debris
Shape & HBR
Unknown shape, 0.1 m
Radar Cross Section
Small (<0.1 m²)

Expand to show TLE details & history
Last TLE update: 1 week ago

TLE from 1 week ago
0 FENGYUN 1C DEB
1 32195U 99025CUR 25292.74746748  .00001282  00000-0  75668-3 0  9990
2 32195  98.7749 296.6377 0070572  92.0670 268.8584 14.08313766632226
Epoch: 2025-10-19T17:56Z
TLE epoch observation values (Epoch: 2025-10-19T17:56:21.190Z)
Latitude
0.00005°
Longitude
-0.91029°
Altitude
869.424 km
Speed
7.417 km/s
True Right ascension
19h 46m 33s
True Declination
0° 00' 00"
Sunlit
Object was in daylight at epoch
Visualization orbit readout
Latitude
Unknown
Longitude
Unknown
Altitude
Unknown
Speed
Unknown
Apparent Right ascension
Unknown
Apparent Declination
Unknown
Sunlit
N/A
Visualization observer readout
Local Sidereal Time
23:19:25
Azimuth
Unknown
Elevation
Unknown
Doppler factor
Unknown
Orbital elements
Apogee altitude
913.422 km
Perigee altitude
811.228 km
Semi-major axis
7,240.462 km
Eccentricity
0.00706
Inclination
98.7749°
RAAN
296.6377°
Arg. of periapsis
92.067°
True anomaly
268.05003°
Mean anomaly
268.8584°
Eccentric anomaly
268.4542°
Mean motion
3.52285 °/min
Orbital period
102.19 mins
BSTAR
0.00075668
Loading maneuver chart data...
Computing Atmospheric mass density...

Documentation

Showing up to 5 results
|